Regional Weather Roundup
Issued by NWS

Home | Current Version | Previous Version | Graphics & Text | Print | Product List | Glossary On
Versions: 1 2 3 4 5 6 7 8 9 10 11 12 13 14 15 16 17 18 19 20 21 22 23 24 25 26 27 28 29 30 31 32 33 34 35 36 37 38 39 40 41 42 43 44 45 46 47 48 49 50
000
ASUS43 KMKX 102200
RWRWI

WISCONSIN REGIONAL WEATHER ROUNDUP
NATIONAL WEATHER SERVICE MILWAUKEE/SULLIVAN WI
500 PM CDT THU JUL 10 2014

NOTE: "FAIR" INDICATES FEW OR NO CLOUDS BELOW 12,000 FEET WITH NO
SIGNIFICANT WEATHER AND/OR OBSTRUCTIONS TO VISIBILITY.

WIZ001-002-006>008-014>016-023>028-102300-
NORTHWEST WISCONSIN

CITY           SKY/WX    TMP DP  RH WIND       PRES   REMARKS
SUPERIOR ARPT  SUNNY     65  55  69 NE8       30.00F
ASHLAND        SUNNY     79  56  45 S9        30.01F HX  80
HAYWARD        MOSUNNY   79  57  46 S10       30.03F HX  80
SIREN          MOSUNNY   81  58  45 S8        30.01F HX  81
RICE LAKE      MOSUNNY   80  58  47 S8        30.04F HX  80
LADYSMITH      MOSUNNY   79  58  47 S7        30.06F HX  80
EAU CLAIRE     MOSUNNY   81  62  52 S10G16    30.02F HX  82
MENOMONIE      PTCLDY    82  62  50 SE6       30.03S HX  83
NEW RICHMOND   MOSUNNY   80  64  57 S9        30.02S HX  81
OSCEOLA        MOSUNNY   82  63  53 S10       30.02F HX  83
$$

WIZ003>005-009-010-017-018-102300-
NORTH CENTRAL WISCONSIN

CITY           SKY/WX    TMP DP  RH WIND       PRES   REMARKS
WOODRUFF       MOSUNNY   80  55  42 S8        30.08F HX  80
RHINELANDER    SUNNY     76  53  44 S6        30.10F
EAGLE RIVER    MOSUNNY   74  51  43 SW8       30.09F
LAND O LAKES   MOSUNNY   76  51  40 S8        30.10F
PHILLIPS       MOSUNNY   76  57  51 S8        30.06F
TOMAHAWK       SUNNY     77  56  48 CALM      30.09F
MEDFORD        MOSUNNY   77  59  53 S8        30.08F
MERRILL        MOSUNNY   77  57  49 SW8       30.09F
$$

WIZ029-030-035-036-043>047-102300-
CENTRAL WISCONSIN

CITY           SKY/WX    TMP DP  RH WIND       PRES   REMARKS
WAUSAU         SUNNY     77  57  50 S8        30.07F
MOSINEE        MOSUNNY   75  59  57 S8        30.10F
MARSHFIELD     SUNNY     77  62  59 S13       30.08F
STEVENS POINT  MOSUNNY   77  56  49 S9        30.10F
WAUPACA        SUNNY     81  56  42 S8        30.10F HX  81
WAUTOMA        NOT AVBL
WISC RAPIDS    MOSUNNY   81  60  48 S10G20    30.09F HX  82
CAMP DOUGLAS   NOT AVBL
$$

WIZ011>013-019>022-031-037>040-048>050-102300-
NORTHEAST WISCONSIN

CITY           SKY/WX    TMP DP  RH WIND       PRES   REMARKS
ANTIGO         MOSUNNY   73  57  56 S8        30.12F
STURGEON BAY   SUNNY     66  52  59 SE15      30.15F
GREEN BAY      SUNNY     76  57  51 SE14      30.12F
MANITOWOC      NOT AVBL
APPLETON       MOSUNNY   75  52  43 S12       30.12F
CLINTONVILLE   CLOUDY    77  54  44 S10       30.11S
OSHKOSH        MOSUNNY   78  57  48 S9        30.11F
$$

WIZ032>034-041-042-053>061-102300-
SOUTHWEST WISCONSIN

CITY           SKY/WX    TMP DP  RH WIND       PRES   REMARKS
LA CROSSE      SUNNY     83  62  49 S13       30.04F HAZE    HX  84
SPARTA         SUNNY     80  60  51 S8        30.08F HX  81
VIROQUA        MOCLDY    79  61  54 S10       30.10S HX  80
BOSCOBEL       MOSUNNY   83  61  47 S8        30.08F HX  83
PRAIRIE DU CHI MOSUNNY   81  56  42 S6        30.07F HX  81
PLATTEVILLE    FAIR      79  60  52 S10       30.12F HX  80
$$

WIZ056-057-062-063-064-067-068-102300-
SOUTH CENTRAL WISCONSIN

CITY           SKY/WX    TMP DP  RH WIND       PRES   REMARKS
BARABOO/DELLS  MOSUNNY   80  58  46 S8        30.10F HX  80
LONE ROCK      NOT AVBL
WATERTOWN      SUNNY     78  58  49 S6        30.12F
MADISON        MOSUNNY   80  58  46 S13       30.11F HX  80
MIDDLETON      FAIR      81  57  43 SW10      30.11F HX  81
MONROE         CLOUDY    77  61  57 S6        30.13S
JANESVILLE     MOSUNNY   81  54  39 SW6       30.12F HX  80
$$

WIZ051-052-058>065-066-070>072-102300-
SOUTHEAST WISCONSIN

CITY           SKY/WX    TMP DP  RH WIND       PRES   REMARKS
MILWAUKEE      MOSUNNY   70  55  59 SE14      30.16F
WAUKESHA       MOSUNNY   73  57  56 SE10      30.16S
MILWAUKEE/TIMM SUNNY     73  46  38 SE13      30.15F
RACINE         SUNNY     70  56  61 SE10      30.17F
BURLINGTON     MOSUNNY   75  59  57 SE10      30.14S
KENOSHA        SUNNY     71  56  58 E10       30.16F
FOND DU LAC    MOSUNNY   78  57  48 SW7       30.12F
SHEBOYGAN      SUNNY     70  54  56 SE8       30.16F
WEST BEND      SUNNY     72  52  49 E10       30.15S
JUNEAU         MOSUNNY   77  40  26 S9        30.14F
$$

LSZ147-162-102300-
LAKE SUPERIOR

STATION/POSITION TIME  TEMP    WIND        PRES    WAVE
                       AIR SEA DIR/SP/G            HT/PER
                 (UTC) (F)     (DEG/KT/KT) (MB)    (FT/S)
W MID LAKE BUOY  2050   48 39  120/  8/  8 1017.9F   0
PORT WING        2140   60      40/  5/  9 1015.9F
SAXON HARBOR     2100          210/  3/ 10 1016.9F
$$

LMZ867-665-643>646-102300-
LAKE MICHIGAN

STATION/POSITION TIME  TEMP    WIND        PRES    WAVE
                       AIR SEA DIR/SP/G            HT/PER
                 (UTC) (F)     (DEG/KT/KT) (MB)    (FT/S)
N MID LAKE BUOY  2050   59 56  210/  6/  8 1021.4F   0
NORTHPORT PIER   2100   63     140/ 11/ 15 1021.3F
KEWAUNEE LAKESHO 2100   56     160/  6/  7 1022.1F
SHEBOYGAN LAKESH 2100   62     180/ 12/ 12 1021.7F
PORT WASHINGTON  2140   66     170/  3/  6 1021.7F
MILWAUKEE LAKESH 2100   61     140/  8/  9   N/A
S MID LAKE BUOY  2050   64 63  180/  2/  2 1022.3F   0
KENOSHA   LAKESH 2100   65     140/  9/ 10   N/A
$$

TC  - TEMPERATURE IN CELSIUS
VSB - VISIBILITY IN STATUTE MILES
WCI - WIND CHILL INDEX
HX  - HEAT INDEX




USA.gov is the U.S. government's official web portal to all federal, state and local government web resources and services.